GW0019 Weather Reports


time (UTC)temp
F
wind
direction
speed
knots
gust
knots
rain 1hr
in
rain 24hr
in
rain mn
in
humidity
%
barometer
mb
20260504050526 65 198 6.1 10.4 0.00 0.00 0.00 73 1016.8
20260504050023 65 196 7.8 11.3 0.00 0.00 0.00 73 1016.7
20260504045519 65 206 7.8 12.2 0.00 0.00 0.00 73 1017.0
20260504045015 65 186 2.6 9.6 0.00 0.00 0.00 73 1017.0
20260504044513 65 201 6.1 10.4 0.00 0.00 0.00 73 1016.8
20260504044009 65 195 4.3 9.6 0.00 0.00 0.00 73 1017.1
20260504043506 65 202 7.8 8.7 0.00 0.00 0.00 73 1017.1
20260504043004 65 204 7.8 10.4 0.00 0.00 0.00 73 1017.2
20260504042500 65 204 5.2 8.7 0.00 0.00 0.00 73 1017.1
20260504041957 65 253 5.2 8.7 0.00 0.00 0.00 73 1017.1
20260504041453 65 226 3.5 8.7 0.00 0.00 0.00 73 1017.3
20260504040949 65 219 4.3 8.7 0.00 0.00 0.00 73 1017.5
20260504040447 65 204 6.1 11.3 0.00 0.00 0.00 73 1017.3
20260504035943 65 208 4.3 9.6 0.00 0.00 0.00 73 1017.5
20260504035441 66 229 7.8 10.4 0.00 0.00 0.00 73 1017.4
20260504034937 65 236 4.3 8.7 0.00 0.00 0.00 73 1017.6
20260504034435 66 228 7.8 13.0 0.00 0.00 0.00 73 1017.5
20260504033931 66 204 7.0 8.7 0.00 0.00 0.00 73 1017.6
20260504033429 66 232 4.3 11.3 0.00 0.00 0.00 73 1017.7
20260504032926 66 174 0.9 7.0 0.00 0.00 0.00 73 1017.6
20260504032423 66 217 6.1 7.8 0.00 0.00 0.00 73 1017.7
20260504031920 66 222 5.2 8.7 0.00 0.00 0.00 73 1017.9
20260504031417 65 220 5.2 7.8 0.00 0.00 0.00 73 1017.8
20260504030913 66 193 4.3 7.8 0.00 0.00 0.00 73 1017.7
20260504030410 66 205 6.1 7.0 0.00 0.00 0.00 73 1017.7
20260504025906 66 197 5.2 11.3 0.00 0.00 0.00 73 1017.5
20260504025403 66 199 4.3 7.8 0.00 0.00 0.00 73 1017.9
20260504024900 66 199 4.3 6.1 0.00 0.00 0.00 73 1017.6
20260504024356 66 215 5.2 7.8 0.00 0.00 0.00 73 1017.6
20260504023854 67 182 3.5 7.0 0.00 0.00 0.00 73 1017.6
20260504023350 67 221 6.1 7.8 0.00 0.00 0.00 73 1017.6
20260504022846 67 222 4.3 7.0 0.00 0.00 0.00 73 1017.3
20260504022343 67 202 5.2 7.0 0.00 0.00 0.00 73 1017.3
20260504021840 67 194 4.3 8.7 0.00 0.00 0.00 73 1017.3
20260504021337 68 214 4.3 6.1 0.00 0.00 0.00 73 1017.2
20260504020834 68 208 6.1 6.1 0.00 0.00 0.00 74 1017.4
20260504020331 68 199 6.1 7.8 0.00 0.00 0.00 74 1017.2
20260504015826 68 90 1.7 6.1 0.00 0.00 0.00 74 1017.1
20260504015323 68 199 6.1 7.0 0.00 0.00 0.00 74 1017.1
20260504014819 69 201 4.3 8.7 0.00 0.00 0.00 74 1017.4
20260504014315 69 202 5.2 6.1 0.00 0.00 0.00 74 1017.3
20260504013813 69 198 4.3 8.7 0.00 0.00 0.00 74 1017.1
20260504013311 69 214 3.5 7.0 0.00 0.00 0.00 74 1017.1
20260504012807 69 212 6.1 7.8 0.00 0.00 0.00 74 1017.1
20260504012305 69 205 5.2 7.0 0.00 0.00 0.00 74 1016.8
20260504011802 70 217 5.2 7.0 0.00 0.00 0.00 74 1017.0
20260504011258 70 153 5.2 7.0 0.00 0.00 0.00 74 1016.9
20260504010754 70 194 3.5 6.1 0.00 0.00 0.00 74 1017.0
20260504010250 70 223 6.1 6.1 0.00 0.00 0.00 74 1017.0
20260504005747 71 216 6.1 7.8 0.00 0.00 0.00 74 1016.9
20260504005244 71 204 7.0 8.7 0.00 0.00 0.00 74 1016.8
20260504004742 71 208 7.8 9.6 0.00 0.00 0.00 74 1017.0
20260504004239 72 211 6.1 10.4 0.00 0.00 0.00 74 1017.0
20260504003735 72 204 9.6 9.6 0.00 0.00 0.00 74 1017.0
20260504003232 72 206 7.0 7.8 0.00 0.00 0.00 74 1017.1
20260504002729 72 203 6.1 9.6 0.00 0.00 0.00 74 1016.9
20260504002226 73 203 8.7 9.6 0.00 0.00 0.00 74 1016.9
20260504001724 73 202 7.8 9.6 0.00 0.00 0.00 74 1016.9
20260504001220 73 208 5.2 9.6 0.00 0.00 0.00 74 1016.8
20260504000717 73 204 7.0 9.6 0.00 0.00 0.00 74 1017.0
20260504000214 73 241 5.2 11.3 0.00 0.00 0.00 74 1016.7
20260503235713 74 227 7.8 12.2 0.00 0.00 0.00 74 1017.0
20260503235209 74 198 7.0 13.9 0.00 0.00 0.00 74 1016.9
20260503234707 74 204 6.1 10.4 0.00 0.00 0.00 74 1016.9
20260503234205 74 195 7.8 12.2 0.00 0.00 0.00 74 1017.1
20260503233702 74 205 5.2 13.0 0.00 0.00 0.00 74 1017.1
20260503233157 74 202 6.1 12.2 0.00 0.00 0.00 74 1017.0
20260503232654 75 198 5.2 13.9 0.00 0.00 0.00 74 1017.3
20260503232151 75 191 7.8 10.4 0.00 0.00 0.00 74 1017.3
20260503231650 75 203 5.2 12.2 0.00 0.00 0.00 74 1017.4
20260503231145 76 196 5.2 13.9 0.00 0.00 0.00 74 1017.4
20260503230642 76 254 7.8 7.8 0.00 0.00 0.00 75 1017.5
20260503230140 76 267 2.6 12.2 0.00 0.00 0.00 75 1017.4
20260503225637 76 249 7.0 14.8 0.00 0.00 0.00 75 1017.6
20260503225137 76 222 11.3 14.8 0.00 0.00 0.00 74 1017.5
20260503224634 75 207 6.1 12.2 0.00 0.00 0.00 74 1017.5
20260503224132 75 203 9.6 13.9 0.00 0.00 0.00 74 1017.7
20260503223630 76 228 7.8 11.3 0.00 0.00 0.00 74 1017.8
20260503223126 75 200 6.1 12.2 0.00 0.00 0.00 74 1017.8
20260503222623 76 165 3.5 11.3 0.00 0.00 0.00 74 1017.8
20260503222121 75 205 9.6 15.6 0.00 0.00 0.00 74 1017.8
20260503221619 76 198 9.6 13.9 0.00 0.00 0.00 74 1018.0
20260503221116 75 207 8.7 14.8 0.00 0.00 0.00 74 1018.0
20260503220613 75 214 8.7 13.0 0.00 0.00 0.00 74 1018.0
20260503220110 75 210 8.7 15.6 0.00 0.00 0.00 74 1018.2
20260503215607 75 146 1.7 10.4 0.00 0.00 0.00 74 1018.1
20260503215103 75 180 5.2 7.8 0.00 0.00 0.00 74 1018.2
20260503214602 75 206 0.9 11.3 0.00 0.00 0.00 74 1018.4
20260503214058 75 225 9.6 13.0 0.00 0.00 0.00 74 1018.6
20260503213557 75 231 11.3 12.2 0.00 0.00 0.00 74 1018.4
20260503213053 75 220 0.0 13.9 0.00 0.00 0.00 74 1018.3
20260503212550 75 209 2.6 10.4 0.00 0.00 0.00 74 1018.5
20260503212047 74 234 8.7 19.1 0.00 0.00 0.00 74 1018.4
20260503211545 75 250 6.1 11.3 0.00 0.00 0.00 74 1018.4
20260503211040 75 197 1.7 13.0 0.00 0.00 0.00 74 1018.8
20260503210537 74 224 7.8 11.3 0.00 0.00 0.00 74 1018.8
20260503210033 74 249 7.8 13.9 0.00 0.00 0.00 74 1018.7
20260503205530 74 192 0.0 15.6 0.00 0.00 0.00 74 1019.1
20260503205026 73 196 3.5 17.4 0.00 0.00 0.00 74 1019.2
20260503204523 74 294 2.6 13.9 0.00 0.00 0.00 74 1019.3
20260503204020 73 215 7.8 15.6 0.00 0.00 0.00 74 1019.5
20260503203517 73 194 3.5 11.3 0.00 0.00 0.00 74 1019.5
20260503203014 73 206 6.1 12.2 0.00 0.00 0.00 74 1019.8
20260503202512 73 253 2.6 13.0 0.00 0.00 0.00 74 1019.9
20260503202010 73 206 2.6 10.4 0.00 0.00 0.00 74 1019.9
20260503201508 73 264 6.1 17.4 0.00 0.00 0.00 74 1020.4
20260503201005 73 210 8.7 17.4 0.00 0.00 0.00 74 1020.4
20260503200501 73 227 9.6 12.2 0.00 0.00 0.00 74 1020.5
20260503195957 73 223 7.0 15.6 0.00 0.00 0.00 74 1020.3
20260503195455 73 235 5.2 11.3 0.00 0.00 0.00 74 1020.5
20260503194951 73 240 4.3 10.4 0.00 0.00 0.00 74 1020.5
20260503194449 71 244 6.1 11.3 0.00 0.00 0.00 74 1020.7
20260503193944 71 221 6.1 20.0 0.00 0.00 0.00 74 1020.7
20260503193439 71 231 4.3 12.2 0.00 0.00 0.00 74 1020.8
20260503192935 71 238 10.4 20.9 0.00 0.00 0.00 74 1020.9
20260503192432 71 277 4.3 17.4 0.00 0.00 0.00 74 1021.1
20260503191927 71 232 7.8 13.0 0.00 0.00 0.00 74 1021.1
20260503191425 71 256 9.6 13.9 0.00 0.00 0.00 74 1021.2
20260503190921 71 215 6.1 13.0 0.00 0.00 0.00 74 1021.3
20260503190419 71 243 2.6 10.4 0.00 0.00 0.00 74 1021.4
20260503185915 71 205 8.7 11.3 0.00 0.00 0.00 74 1021.5
20260503185412 71 257 3.5 8.7 0.00 0.00 0.00 74 1021.6
20260503184911 70 210 10.4 14.8 0.00 0.00 0.00 74 1021.4
20260503184408 70 235 4.3 11.3 0.00 0.00 0.00 74 1021.5
20260503183904 70 229 5.2 11.3 0.00 0.00 0.00 74 1021.7
20260503183401 69 229 2.6 11.3 0.00 0.00 0.00 74 1022.0
20260503182858 70 192 5.2 9.6 0.00 0.00 0.00 74 1021.6
20260503182357 69 202 5.2 8.7 0.00 0.00 0.00 74 1022.0
20260503181853 69 226 6.1 10.4 0.00 0.00 0.00 74 1021.9
20260503181351 69 157 4.3 12.2 0.00 0.00 0.00 74 1022.2
20260503180847 70 244 5.2 9.6 0.00 0.00 0.00 74 1022.0
20260503180345 69 219 5.2 7.8 0.00 0.00 0.00 74 1022.4
20260503175842 69 220 9.6 15.6 0.00 0.00 0.00 74 1022.5
20260503175340 69 225 5.2 10.4 0.00 0.00 0.00 74 1022.6
20260503174835 68 222 5.2 13.0 0.00 0.00 0.00 74 1022.5
20260503174333 68 225 14.8 14.8 0.00 0.00 0.00 73 1022.6
20260503173828 67 238 7.0 10.4 0.00 0.00 0.00 73 1022.8
20260503173325 67 201 7.0 10.4 0.00 0.00 0.00 73 1022.7
20260503172822 68 270 0.0 11.3 0.00 0.00 0.00 73 1022.9
20260503172320 68 220 10.4 11.3 0.00 0.00 0.00 73 1023.0
20260503171815 66 207 6.1 13.0 0.00 0.00 0.00 73 1023.0
20260503171312 67 190 1.7 9.6 0.00 0.00 0.00 73 1023.3
20260503170809 65 201 4.3 9.6 0.00 0.00 0.00 73 1023.4
20260503170306 66 231 5.2 12.2 0.00 0.00 0.00 73 1023.4
20260503150658 60 198 2.6 15.6 0.00 0.00 0.00 73 1024.6
20260503150154 59 202 2.6 16.5 0.00 0.00 0.00 73 1024.5
20260503140119 55 211 4.3 10.4 0.00 0.00 0.00 72 1024.8
20260503131048 51 194 7.0 12.2 0.00 0.00 0.00 72 1025.0
20260503130545 51 217 2.6 9.6 0.00 0.00 0.00 72 1024.9
20260503110436 45 164 2.6 6.1 0.00 0.00 0.00 71 1023.8
20260503090321 46 153 2.6 3.5 0.00 0.00 0.00 71 1024.6
20260503081248 46 156 0.0 4.3 0.00 0.00 0.00 71 1024.7
20260503080744 46 133 2.6 3.5 0.00 0.00 0.00 71 1024.8
20260503080242 46 180 1.7 3.5 0.00 0.00 0.00 71 1024.7
20260503072718 43 124 4.3 6.1 0.00 0.00 0.00 71 1024.6
20260503072215 44 110 3.5 4.3 0.00 0.00 0.00 71 1024.6
20260503071712 43 277 0.0 1.7 0.00 0.00 0.00 71 1024.7
20260503071209 43 287 0.0 1.7 0.00 0.00 0.00 71 1024.6
20260503070705 43 239 2.6 2.6 0.00 0.00 0.00 71 1024.7
20260503070204 43 233 0.0 2.6 0.00 0.00 0.00 71 1024.7
20260503060127 45 252 1.7 1.7 0.00 0.00 0.00 71 1024.8